Tracking 20721 objects as of 1-Jun-2020
HD Live streaming from Space Station
objects crossing your sky now

FENGYUN 1C DEB

Track FENGYUN 1C DEB now!
10-day predictions


NORAD ID: 32448
Int'l Code: 1999-025DBL
Perigee: 729.3 km
Apogee: 764.8 km
Inclination: 99.0 °
Period: 99.6 minutes
Semi major axis: 7118 km
RCS: 0.0149 m2 (small)
Launch date: May 10, 1999
Source: People's Republic of China (PRC)
Launch site: Taiyaun Space Center, China (TSC)

Note: This is SATELLITE DEBRIS
aabbcc
Your satellite tracking list
Your tracking list is empty




NASA's NSSDC Master Catalog

Two Line Element Set (TLE):
1 32448U 99025DBL 20142.29526828 +.00002420 +00000-0 +69555-3 0  9998
2 32448 098.9565 314.6727 0024935 042.4893 080.5120 14.45636896358765
Source of the keplerian elements: AFSPC